Flag for Switzerland Weather past 2 weeks in Meyrin, Geneva, Switzerland

Now
52 °F

Passing clouds.


Feels Like: 51 °F
Forecast: 44 / 65 °F
Wind: 3 mph from North

Location: Geneva Cointrin Airport

Current Time: May 7, 2015 at 1:43:19 AM

Latest Report: May 7, 2015 at 1:20 AM


Visibility: N/A

Pressure: 30.15 "Hg

Humidity: 72%

Dew point: 43 °F

Location of MeyrinLocation

Historic Weather in Meyrin — Graph

°F

Meyrin temperature yesterday

Maximum temperature yesterday: 70 °F (at 4:50 PM)
Minimum temperature yesterday: 52 °F (at 3:50 AM)
Average temperature yesterday: 60 °F

Past Weeks' High & Low Weather Summary

 TemperatureHumidityPressure
High75 °F (Apr 24, 3:50 PM)100% (Apr 25, 7:20 PM)30.30 "Hg (Apr 25, 7:20 PM)
Low36 °F (Apr 29, 6:20 AM)19% (Apr 24, 3:20 PM)29.50 "Hg (Apr 27, 4:20 PM)
Average57 °F75%29.92 "Hg
* Reported Apr 22 12:20 AM — May 7 12:20 AM, Meyrin, Weather by CustomWeather, © 2015

Note: Actual official high and low records may vary slightly from our data, if they occured in-between our weather recording intervals... More about our weather records

Advertising

Meyrin weather history for previous 24 hours

 ConditionsComfort  
Time TempWeatherWind HumidityBarometerVisibility
12:20 AM
Thu, May 7
52 °FPassing clouds.2 mph82%30.12 "HgN/A
11:50 PM
Wed, May 6
52 °FPassing clouds.1 mph77%30.12 "HgN/A
11:20 PM54 °FPassing clouds.3 mph72%30.12 "HgN/A
10:50 PM55 °FPassing clouds.3 mph67%30.12 "HgN/A
10:20 PM57 °FPassing clouds.3 mph59%30.12 "HgN/A
9:50 PM59 °FPassing clouds.5 mph51%30.09 "HgN/A
9:20 PM59 °FScattered clouds.5 mph59%30.09 "HgN/A
8:50 PM61 °FScattered clouds.7 mph55%30.07 "HgN/A
8:20 PM63 °FScattered clouds.3 mph52%30.07 "HgN/A
7:50 PM64 °FScattered clouds.6 mph49%30.04 "HgN/A
7:20 PM66 °FPassing clouds.6 mph46%30.04 "HgN/A
6:50 PM64 °FPassing clouds.7 mph46%30.04 "HgN/A
6:20 PM64 °FPassing clouds.9 mph49%30.04 "HgN/A
5:50 PM68 °FPassing clouds.7 mph43%30.04 "HgN/A
5:20 PM70 °FPassing clouds.8 mph40%30.01 "HgN/A
4:50 PM70 °FScattered clouds.8 mph43%30.01 "HgN/A
4:20 PM68 °FScattered clouds.10 mph43%30.01 "HgN/A
3:50 PM68 °FScattered clouds.9 mph43%30.01 "HgN/A
3:20 PM68 °FScattered showers. Scattered clouds.5 mph46%30.04 "HgN/A
2:50 PM68 °FScattered clouds.7 mph46%30.04 "HgN/A
2:20 PM66 °FScattered clouds.9 mph49%30.04 "HgN/A
1:50 PM68 °FScattered clouds.8 mph53%30.04 "HgN/A
1:20 PM66 °FPartly sunny.8 mph56%30.04 "HgN/A
12:50 PM64 °FScattered clouds.8 mph56%30.04 "HgN/A
12:20 PM64 °FPassing clouds.6 mph56%30.04 "HgN/A
11:50 AM63 °FPassing clouds.5 mph56%30.07 "HgN/A
11:20 AM63 °FPassing clouds.5 mph64%30.07 "HgN/A
10:50 AM63 °FPassing clouds.5 mph64%30.07 "HgN/A
10:20 AM61 °FPassing clouds.8 mph63%30.07 "HgN/A
9:50 AM59 °FPassing clouds.2 mph63%30.07 "HgN/A
9:20 AM59 °FPassing clouds.2 mph77%30.07 "HgN/A
8:50 AM55 °FPassing clouds.2 mph88%30.07 "HgN/A
8:20 AM54 °FScattered clouds.1 mph94%30.07 "HgN/A
7:50 AM54 °FPassing clouds.1 mph100%30.04 "HgN/A
7:20 AM52 °FScattered clouds.3 mph100%30.04 "HgN/A
6:50 AM52 °FPartly cloudy.2 mph100%30.04 "HgN/A
6:20 AM52 °FLight rain. Partly cloudy.5 mph100%30.01 "HgN/A
5:50 AM52 °FLight rain. Partly cloudy.2 mph100%30.04 "HgN/A
5:20 AM52 °FLight rain. Mostly cloudy.7 mph100%30.01 "HgN/A
4:50 AM52 °FRain. Mostly cloudy.2 mph100%30.01 "HgN/A
4:20 AM52 °FLight rain. Partly cloudy.2 mph100%30.01 "Hg5 mi
3:50 AM52 °FLight rain. Partly cloudy.6 mph100%30.01 "HgN/A
2:50 AM54 °FSprinkles. Passing clouds.1 mph94%29.98 "HgN/A
2:20 AM55 °FSprinkles. Passing clouds.2 mph88%29.98 "HgN/A
1:50 AM57 °FRain showers. Passing clouds.3 mph100%29.98 "HgN/A
1:20 AM57 °FPassing clouds.1 mph100%29.98 "HgN/A
Weather by CustomWeather, © 2015

See weather overviewHow to use our weather pages